Change the Weather History Date:

Saturday, April 6, 2013

  Actual Average Record
Temperature  
Mean Temperature 34 °F 40 °F  
Max Temperature 43 °F 50 °F 73 °F (1947)
Min Temperature 25 °F 30 °F 12 °F (1943)
Degree Days  
Heating Degree Days 31 25  
Month to date heating degree days 179 156  
Since 1 July heating degree days 6173 6563  
Cooling Degree Days 0 0  
Month to date cooling degree days 0 0  
Year to date cooling degree days 0 0  
Moisture  
Dew Point 9 °F    
Average Humidity 46    
Maximum Humidity 72    
Minimum Humidity 19    
Precipitation  
Precipitation 0.00 in 0.15 in 1.16 in (1958)
Month to date precipitation 0.15 0.98  
Year to date precipitation 5.57 9.95  
Sea Level Pressure  
Sea Level Pressure 30.17 in    
Wind  
Wind Speed 9 mph (WNW)    
Max Wind Speed 22 mph    
Max Gust Speed 37 mph    
Visibility 10 miles    
Events      
T = Trace of Precipitation, MM = Missing Value Source: NWS Daily Summary

Daily Weather History Graph

Daily Weather History Graph

Search for Another Location

Airport or City:

Trip Planner

Search our weather history database for the weather conditions in past years. The results will help you decide how hot, cold, wet, or windy it might be!

Date:

Astronomy

Apr. 06, 2013 Rise Set
Actual Time 6:26 AM EDT 7:24 PM EDT
Civil Twilight 5:58 AM EDT 7:53 PM EDT
Nautical Twilight 5:23 AM EDT 8:27 PM EDT
Astronomical Twilight 4:48 AM EDT 9:03 PM EDT
Moon 4:13 AM EDT (4/6) 3:46 PM EDT (4/6)
Length of Visible Light 13h 55m
Length of Day
12h 58m
Waning Crescent, 15% of the Moon is Illuminated
Apr 6
Waning Crescent
Apr 10
New
Apr 18
First Quarter
Apr 25
Full
May 2
Last Quarter

Hourly Weather History & Observations

Time (EDT) Temp. Windchill Dew Point Humidity Pressure Visibility Wind Dir Wind Speed Gust Speed Precip Events Conditions
12:54 AM 32.0 °F 21.2 °F 25.0 °F 75% 29.93 in 7.0 mi WNW 16.1 mph 25.3 mph 0.00 in   Overcast
1:54 AM 32.0 °F 21.6 °F 23.0 °F 69% 29.94 in 8.0 mi WNW 15.0 mph 26.5 mph N/A   Overcast
2:54 AM 30.9 °F 21.2 °F 17.1 °F 57% 29.97 in 10.0 mi NW 12.7 mph 25.3 mph N/A   Overcast
3:54 AM 28.0 °F 17.5 °F 10.0 °F 47% 30.01 in 10.0 mi NW 12.7 mph 26.5 mph N/A   Mostly Cloudy
4:54 AM 27.0 °F 14.7 °F 8.1 °F 45% 30.05 in 10.0 mi WNW 16.1 mph 28.8 mph N/A   Clear
5:54 AM 26.1 °F 12.3 °F 8.1 °F 47% 30.09 in 10.0 mi WNW 19.6 mph 25.3 mph N/A   Clear
6:54 AM 25.0 °F 14.8 °F 5.0 °F 43% 30.14 in 10.0 mi NW 10.4 mph 32.2 mph N/A   Clear
7:54 AM 26.1 °F 14.5 °F 3.9 °F 39% 30.18 in 10.0 mi NW 13.8 mph 27.6 mph N/A   Clear
8:54 AM 28.0 °F 18.1 °F 3.9 °F 36% 30.19 in 10.0 mi NW 11.5 mph 23.0 mph N/A   Clear
9:54 AM 30.9 °F 19.1 °F 3.0 °F 31% 30.21 in 10.0 mi NW 18.4 mph 27.6 mph N/A   Clear
10:54 AM 32.0 °F 22.1 °F 3.0 °F 29% 30.24 in 10.0 mi WNW 13.8 mph 24.2 mph N/A   Clear
11:54 AM 34.0 °F 25.0 °F 1.9 °F 26% 30.24 in 10.0 mi NW 12.7 mph 24.2 mph N/A   Clear
1:54 PM 39.0 °F 36.8 °F 5.0 °F 24% 30.22 in 10.0 mi Variable 3.5 mph - N/A   Clear
2:54 PM 41.0 °F 37.1 °F 5.0 °F 23% 30.22 in 10.0 mi WNW 5.8 mph - N/A   Clear
3:54 PM 42.1 °F 36.1 °F 5.0 °F 22% 30.21 in 10.0 mi WNW 10.4 mph 17.3 mph N/A   Clear
4:54 PM 42.1 °F 36.1 °F 3.0 °F 20% 30.22 in 10.0 mi West 10.4 mph 17.3 mph N/A   Clear
5:54 PM 42.1 °F 39.2 °F 3.0 °F 20% 30.23 in 10.0 mi North 4.6 mph - N/A   Clear
6:54 PM 39.9 °F 34.5 °F 3.9 °F 22% 30.26 in 10.0 mi WSW 8.1 mph - N/A   Clear
7:54 PM 34.0 °F - 10.0 °F 37% 30.27 in 10.0 mi Calm Calm - N/A   Clear
8:54 PM 30.9 °F 27.5 °F 10.0 °F 42% 30.28 in 10.0 mi West 3.5 mph - N/A   Clear
9:54 PM 30.0 °F - 17.1 °F 59% 30.29 in 10.0 mi Calm Calm - N/A   Clear
10:54 PM 28.9 °F - 12.9 °F 51% 30.29 in 10.0 mi Calm Calm - N/A   Clear
11:54 PM 28.0 °F - 15.1 °F 58% 30.28 in 10.0 mi Calm Calm - N/A   Clear